SCP
0 0 0 0 0 0 0 0 0 0 0 0 0 0 0 0 0 0 0 0 0 0 0 0 0 0 0 0 0 0 0 0 0 0 0 0 0 0 0 0 0 0 0 0 0 0 0 0 0
0 0 0 0 0 0 0 0 0 0 0 0 0 0 0 0 0 0 0 0 0 0 0 0 0 0 0 0 0 0 0 0 0 0 0 0 0 0 0 0 0 0 0 0 0 0 0 0 0
0 0 0 0 0 0 0 0 0 0 0 0 0 0 0 0 0 0 0 0 0 0 0 0 0 0 0 0 0 0 0 0 0 0 0 0 0 0 0 0 0 0 0 0 0 0 0 0 0
0 0 0 0 0 0 0 0 0 0 0 0 0 0 0 0 0 0 0 0 0 0 0 0 0 0 0 0 0 0 0 0 0 0 0 0 0 0 0 0 0 0 0 0 0 0 0 0 0
0 0 0 0 0 0 0 0 0 0 0 0 0 0 0 0 0 0 0 0 0 0 0 0 0 0 0 0 0 0 0 0 0 0 0 0 0 0 0 0 0 0 0 0 0 0 0 0 0
0 0 0 0 0 0 0 0 0 0 0 0 0 0 0 0 0 0 0 0 0 0 0 0 0 0 0 0 0 0 0 0 0 0 0 0 0 0 0 0 0 0 0 0 0 0 0 0 0
0 0 0 0 0 0 0 0 0 0 0 0 0 0 0 0 0 0 0 0 0 0 0 0 0 0 0 0 0 0 0 0 0 0 0 0 0 0 0 0 0 0 0 0 0 0 0 0 0
0 0 0 0 0 0 0 0 0 0 0 0 0 0 0 0 0 0 0 0 0 0 0 0 0 0 0 0 0 0 0 0 0 0 0 0 0 0 0 0 0 0 0 0 0 0 0 0 0
0 0 0 0 0 0 0 0 0 0 0 0 0 0 0 0 0 0 0 0 0 0 0 0 0 0 0 0 0 0 0 0 0 0 0 0 0 0 0 0 0 0 0 0 0 0 0 0 0
0 0 0 0 0 0 0 0 0 0 0 0 0 0 0 0 0 0 0 0 0 0 0 0 0 0 0 0 0 0 0 0 0 0 0 0 0 0 0 0 0 0 0 0 0 0 0 0 0
0 0 0 0 0 0 0 0 0 0 0 0 0 0 0 0 0 0 0 0 0 0 0 0 0 0 0 0 0 0 0 0 0 0 0 0 0 0 0 0 0 0 0 0 0 0 0 0 0
0 0 0 0 0 0 0 0 0 0 0 0 0 0 0 0 0 0 0 0 0 0 0 0 0 0 0 0 0 0 0 0 0 0 0 0 0 0 0 0 0 0 0 0 0 0 0 0 0
0 0 0 0 0 0 0 0 0 0 0 0 0 0 0 0 0 0 0 0 0 0 0 0 0 0 0 0 0 0 0 0 0 0 0 0 0 0 0 0 0 0 0 0 0 0 0 0 0
0 0 0 0 0 0 0 0 0 0 0 0 0 0 0 0 0 0 0 0 0 0 0 0 0 0 0 0 0 0 0 0 0 0 0 0 0 0 0 0 0 0 0 0 0 0 0 0 0
0 0 0 0 0 0 0 0 0 0 0 0 0 0 0 0 0 0 0 0 0 0 0 0 0 0 0 0 0 0 0 0 0 0 0 0 0 0 0 0 0 0 0 0 0 0 0 0 0
0 0 0 0 0 0 0 0 0 0 0 0 0 0 0 0 0 0 0 0 0 0 0 0 0 0 0 0 0 0 0 0 0 0 0 0 0 0 0 0 0 0 0 0 0 0 0 0 0
0 0 0 0 0 0 0 0 0 0 0 0 0 0 0 0 0 0 0 0 0 0 0 0 0 0 0 0 0 0 0 0 0 0 0 0 0 0 0 0 0 0 0 0 0 0 0 0 0
0 0 0 0 0 0 0 0 0 0 0 0 0 0 0 0 0 0 0 0 0 0 0 0 0 0 0 0 0 0 0 0 0 0 0 0 0 0 0 0 0 0 0 0 0 0 0 0 0
0 0 0 0 0 0 0 0 0 0 0 0 0 0 0 0 0 0 0 0 0 0 0 0 0 0 0 0 0 0 0 0 0 0 0 0 0 0 0 0 0 0 0 0 0 0 0 0 0
0 0 0 0 0 0 0 0 0 0 0 0 0 0 0 0 0 0 0 0 0 0 0 0 0 0 0 0 0 0 0 0 0 0 0 0 0 0 0 0 0 0 0 0 0 0 0 0 0
0 0 0 0 0 0 0 0 0 0 0 0 0 0 0 0 0 0 0 0 0 0 0 0 0 0 0 0 0 0 0 0 0 0 0 0 0 0 0 0 0 0 0 0 0 0 0 0 0
0 0 0 0 0 0 0 0 0 0 0 0 0 0 0 0 0 0 0 0 0 0 0 0 0 0 0 0 0 0 0 0 0 0 0 0 0 0 0 0 0 0 0 0 0 0 0 0 0
0 0 0 0 0 0 0 0 0 0 0 0 0 0 0 0 0 0 0 0 0 0 0 0 0 0 0 0 0 0 0 0 0 0 0 0 0 0 0 0 0 0 0 0 0 0 0 0 0
0 0 0 0 0 0 0 0 0 0 0 0 0 0 0 0 0 0 0 0 0 0 0 0 0 0 0 0 0 0 0 0 0 0 0 0 0 0 0 0 0 0 0 0 0 0 0 0 0
0 0 0 0 0 0 0 0 0 0 0 0 0 0 0 0 0 0 0 0 0 0 0 0 0 0 0 0 0 0 0 0 0 0 0 0 0 0 0 0 0 0 0 0 0 0 0 0 0
0 0 0 0 0 0 0 0 0 0 0 0 0 0 0 0 0 0 0 0 0 0 0 0 0 0 0 0 0 0 0 0 0 0 0 0 0 0 0 0 0 0 0 0 0 0 0 0 0
0 0 0 0 0 0 0 0 0 0 0 0 0 0 0 0 0 0 0 0 0 0 0 0 0 0 0 0 0 0 0 0 0 0 0 0 0 0 0 0 0 0 0 0 0 0 0 0 0
0 0 0 0 0 0 0 0 0 0 0 0 0 0 0 0 0 0 0 0 0 0 0 0 0 0 0 0 0 0 0 0 0 0 0 0 0 0 0 0 0 0 0 0 0 0 0 0 0
0 0 0 0 0 0 0 0 0 0 0 0 0 0 0 0 0 0 0 0 0 0 0 0 0 0 0 0 0 0 0 0 0 0 0 0 0 0 0 0 0 0 0 0 0 0 0 0 0
0 0 0 0 0 0 0 0 0 0 0 0 0 0 0 0 0 0 0 0 0 0 0 0 0 0 0 0 0 0 0 0 0 0 0 0 0 0 0 0 0 0 0 0 0 0 0 0 0
Wind_Speed
7 6 3 1 4 5 2 2 1 2 3 3 4 5 5 4 2 1 2 1 1 1 1 0 3 5 6 7 7 8 8 8 8 8 8 9 10 11 11 11 11 11 11 11 10 10 10 11 13
5 5 1 2 5 3 2 1 2 2 3 3 4 5 5 4 2 2 1 1 2 1 1 1 5 6 7 7 7 8 9 9 9 9 9 10 11 11 11 11 11 11 11 10 10 10 11 12 13
5 2 2 4 3 2 2 1 3 3 3 2 3 4 4 2 2 1 1 2 3 2 2 1 5 6 7 7 7 8 8 9 9 9 9 10 10 10 10 10 10 10 10 9 10 10 11 11 11
3 2 3 4 2 1 2 3 3 4 3 4 4 5 3 2 1 2 3 3 3 2 2 1 5 6 6 7 7 7 8 8 8 9 9 9 9 10 9 9 9 9 9 9 9 10 10 10 10
2 3 5 3 2 1 1 3 3 3 3 4 4 4 3 4 4 5 4 3 3 2 2 2 4 5 6 7 7 7 8 8 8 9 9 8 8 9 8 8 8 8 8 8 8 9 8 8 8
3 4 4 1 1 2 2 2 3 4 4 4 4 4 3 2 4 4 4 3 3 2 2 3 4 6 6 7 7 7 7 8 8 8 8 8 8 8 7 7 7 7 7 7 8 8 7 7 7
3 3 2 1 1 1 2 2 4 4 4 2 3 4 2 1 2 4 4 4 4 3 4 4 4 4 5 6 7 7 8 8 8 8 8 8 8 7 7 6 6 6 7 7 8 7 7 7 6
3 4 2 0 2 1 2 3 3 4 4 3 4 5 3 3 4 5 5 4 4 4 4 4 4 4 4 4 6 7 8 8 8 8 8 7 7 7 7 6 6 6 6 7 7 7 6 6 5
3 5 1 3 4 3 3 3 2 3 5 3 3 3 4 7 7 6 4 3 3 3 3 3 3 4 4 4 5 6 7 8 7 6 8 7 4 4 4 5 6 6 6 7 7 7 6 5 4
4 3 5 4 4 4 3 4 4 4 4 3 5 6 9 8 7 6 4 3 1 1 2 2 3 3 3 3 4 4 4 4 5 4 5 4 4 4 5 6 7 7 7 7 7 6 5 4 2
3 4 2 1 2 5 4 3 3 6 2 4 7 10 10 8 6 5 4 2 2 1 1 2 2 2 3 2 3 2 3 3 4 4 4 4 4 3 4 3 4 5 5 4 5 4 3 2 2
2 1 1 2 3 5 5 4 4 3 3 5 9 11 10 8 6 5 4 3 2 2 1 1 2 2 2 2 2 2 2 2 2 3 3 3 2 3 3 2 2 2 2 2 2 2 2 2 2
2 1 2 4 6 5 6 4 4 2 4 9 10 9 8 7 5 3 3 3 3 2 2 2 2 2 2 2 2 2 2 2 2 2 2 3 2 2 2 2 2 2 2 2 2 2 2 2 1
2 3 3 4 5 3 6 3 3 3 7 10 10 7 6 6 5 4 3 3 2 2 2 2 2 2 2 2 2 2 2 1 2 2 2 2 2 2 2 2 2 2 1 1 1 1 1 1 1
4 5 5 3 3 3 6 3 1 5 8 9 8 7 6 5 5 5 5 4 4 3 3 3 3 2 2 2 2 2 1 2 1 1 1 1 1 1 1 2 2 1 1 1 1 2 2 1 1
4 5 2 2 2 2 5 2 2 6 9 7 6 6 6 4 5 5 4 4 3 3 3 2 3 3 2 1 1 1 1 1 1 1 1 1 1 1 1 1 1 1 1 1 1 1 2 1 1
4 2 1 2 1 2 3 2 3 6 8 7 6 5 5 5 4 4 5 5 4 4 3 3 2 3 2 2 2 1 1 1 1 1 1 1 1 1 1 1 1 1 1 1 1 1 1 1 1
2 2 1 2 1 3 2 2 3 6 7 7 6 5 6 6 6 5 5 5 4 4 3 3 2 2 2 2 2 2 2 1 1 1 1 1 1 1 1 1 1 1 1 1 1 1 1 1 1
4 3 1 2 2 3 3 3 4 6 6 7 7 7 7 7 5 4 5 5 4 4 4 3 3 2 2 2 1 1 0 1 1 1 1 1 1 1 2 1 1 1 1 0 0 1 1 1 1
3 2 1 2 1 3 1 2 3 7 8 9 9 8 8 6 4 5 5 5 5 5 5 4 4 3 2 2 1 1 1 0 0 1 1 1 1 1 1 1 1 1 1 1 1 0 1 1 1
2 4 4 2 2 3 2 3 1 3 4 5 6 7 7 9 9 7 7 6 6 6 6 6 5 4 3 3 2 2 2 2 1 1 1 1 1 1 0 1 1 1 1 0 1 0 1 0 1
3 4 4 4 4 1 2 2 5 3 3 6 7 7 8 9 8 7 7 7 7 7 6 5 5 4 4 3 3 3 2 1 1 1 1 1 1 1 0 1 1 1 1 0 1 0 0 1 0
3 2 4 3 4 2 2 1 7 1 4 8 9 9 9 9 9 9 10 9 8 7 6 5 5 4 4 4 4 3 2 2 1 0 0 1 1 1 0 1 1 1 1 1 0 0 0 0 1
4 6 6 6 5 1 2 2 6 4 6 6 7 8 8 8 8 8 7 6 5 5 5 5 5 5 4 5 4 4 4 3 2 1 1 1 1 1 1 0 1 1 1 1 1 0 0 1 1
5 6 4 4 4 4 2 2 8 6 5 6 7 8 8 7 7 7 7 7 7 6 6 6 6 5 5 5 5 5 5 4 4 3 2 2 1 1 1 1 1 1 1 1 1 1 1 1 1
3 7 7 4 4 4 1 3 7 5 4 2 3 5 5 6 7 7 7 7 7 7 7 7 7 6 6 6 5 4 4 3 2 3 2 2 2 2 2 1 1 1 1 1 1 0 1 0 1
5 3 5 7 2 0 4 5 8 3 3 1 2 3 5 6 6 6 6 6 7 7 7 7 7 6 6 5 5 4 4 3 3 2 2 1 1 1 1 1 1 1 1 1 1 1 1 0 1
5 8 5 6 5 2 4 4 5 5 4 2 2 4 4 4 5 6 6 6 6 6 6 6 6 7 6 5 5 4 4 4 3 2 2 2 2 1 1 1 1 0 0 0 1 0 0 0 0
3 4 5 5 5 6 3 7 5 6 5 4 5 5 5 5 6 6 5 5 5 5 5 5 5 5 5 5 5 4 3 3 3 3 3 3 2 2 1 1 1 1 1 0 1 1 0 0 0
4 5 7 5 3 4 3 8 4 4 4 4 4 4 4 5 4 4 5 4 5 5 5 5 5 5 5 5 5 4 3 3 3 3 3 2 2 2 2 2 1 1 1 1 1 1 1 1 1
Wind_Direction
154 140 138 104 53 49 25 339 50 65 49 41 59 73 82 70 85 122 308 66 62 26 334 31 104 96 96 94 92 92 95 97 97 100 101 103 114 119 119 121 120 119 121 119 119 119 123 129 134
145 148 135 60 73 60 337 337 66 76 133 126 67 62 63 56 58 94 2 1 71 58 21 45 103 100 98 96 92 94 97 98 96 96 99 102 108 112 115 117 118 118 119 118 119 118 121 124 127
158 168 86 68 85 151 193 169 116 102 116 86 65 56 64 63 84 134 204 117 74 48 23 26 101 98 101 102 95 94 97 95 95 95 99 102 105 109 111 115 119 120 121 120 120 122 120 123 126
147 73 55 66 55 235 179 162 133 109 65 53 81 65 53 48 126 145 128 109 82 44 15 28 96 98 97 98 94 93 93 94 94 97 98 103 106 108 109 112 118 121 124 124 121 119 119 122 127
83 74 56 42 344 353 121 146 124 95 67 56 76 77 36 11 88 112 118 111 92 51 19 29 85 94 96 96 95 94 92 92 93 98 101 104 108 110 109 108 108 115 122 125 124 121 124 129 132
63 67 72 37 8 48 91 104 95 79 79 77 80 83 42 30 101 116 108 95 83 64 38 34 74 85 90 90 89 92 93 90 91 95 97 101 104 109 109 108 107 115 118 122 125 122 123 129 133
102 89 111 152 94 89 150 118 109 107 94 90 100 89 68 63 103 103 85 72 62 51 43 31 28 55 75 82 82 88 92 90 89 89 91 95 99 102 103 100 102 114 116 117 122 122 120 120 129
133 97 73 141 149 181 146 114 109 111 102 105 99 121 161 178 120 93 76 60 51 45 41 35 29 34 42 51 70 79 82 81 80 80 84 87 88 91 92 83 93 107 111 112 114 110 114 118 123
101 78 162 201 176 180 139 111 93 82 99 86 80 118 139 131 115 97 81 57 45 46 35 38 42 43 49 56 65 66 72 69 68 71 75 67 51 57 71 74 85 93 95 96 98 99 100 104 104
95 127 215 209 176 156 136 123 136 107 92 79 74 86 109 121 122 118 123 127 108 60 37 42 58 61 58 64 59 49 54 51 50 50 53 52 53 54 60 59 69 74 77 81 84 80 80 85 85
137 181 213 165 137 126 122 118 109 124 137 170 150 138 134 133 134 140 151 158 156 117 72 64 69 65 67 64 64 53 53 52 48 49 50 50 49 48 47 45 45 49 57 57 61 57 61 71 90
124 304 155 117 113 117 134 129 107 134 188 149 144 144 142 146 155 164 163 163 138 112 106 82 80 80 72 75 68 67 65 61 53 48 58 63 55 48 45 45 37 40 44 48 48 58 57 61 75
96 30 51 101 103 114 108 104 109 90 103 117 126 133 144 153 159 156 143 142 135 141 144 120 104 98 88 83 72 75 68 63 58 55 59 76 74 58 50 44 39 35 44 56 53 53 50 45 44
119 71 55 77 98 109 110 91 88 119 119 124 134 144 154 159 156 142 142 152 156 163 163 137 122 118 103 96 88 75 74 69 62 56 51 71 79 70 60 47 37 36 43 54 65 54 46 27 25
88 70 41 42 87 120 107 71 140 149 132 136 147 154 161 169 162 171 177 174 177 172 157 140 135 108 101 102 97 83 76 76 67 49 49 72 86 86 78 64 47 36 41 53 65 51 51 40 34
55 60 34 308 88 126 119 198 187 148 142 150 159 164 170 181 184 186 175 170 170 160 151 148 136 111 105 96 88 77 75 76 66 59 61 74 94 107 94 76 51 48 56 60 73 61 62 45 40
40 80 250 288 201 132 128 204 178 156 151 163 173 176 178 184 194 192 178 172 171 168 156 145 127 127 125 98 76 70 64 62 52 55 57 59 79 107 113 99 55 54 65 56 73 77 96 70 25
210 183 216 243 233 121 142 215 169 166 166 176 179 188 189 195 204 192 180 173 167 161 152 148 135 127 114 89 66 47 34 20 30 38 42 66 84 109 116 94 46 53 65 42 51 70 51 51 18
164 156 192 255 194 143 184 214 196 178 177 186 187 193 199 207 201 180 175 168 158 158 156 162 158 153 123 99 92 80 355 333 2 342 0 46 61 85 109 95 67 69 75 44 50 87 53 21 15
137 130 226 308 106 139 174 255 209 191 198 197 197 198 199 196 187 185 178 173 175 176 177 178 184 174 167 157 141 143 150 191 248 342 8 25 39 60 117 114 99 77 72 37 29 76 88 8 38
178 180 203 187 61 53 69 339 262 230 212 205 207 202 198 196 195 193 187 186 184 186 188 192 192 186 184 164 117 85 62 38 29 4 350 341 343 15 69 120 131 104 109 75 313 305 144 192 10
229 216 174 144 103 350 79 295 286 238 226 218 215 206 205 204 196 191 190 191 196 197 187 186 184 183 182 166 155 153 157 182 221 243 292 324 354 14 106 135 144 144 133 172 276 20 198 166 270
192 108 113 110 117 60 29 140 287 270 240 237 222 211 209 203 195 194 195 196 198 190 181 182 176 183 181 176 175 171 182 197 190 174 311 318 332 336 355 166 153 158 177 208 267 42 89 163 202
121 73 58 50 68 17 253 160 280 246 228 241 221 209 205 199 194 195 193 187 188 179 177 175 178 190 186 182 183 186 193 187 175 200 235 285 301 310 311 211 172 191 210 231 245 217 189 217 212
88 89 42 9 16 260 266 188 254 261 241 224 216 201 195 189 184 185 184 187 188 184 184 180 180 194 192 188 193 197 197 185 192 206 216 232 261 277 272 253 220 221 229 232 224 218 263 247 238
164 138 153 185 213 272 326 238 261 277 283 239 189 181 174 176 180 185 187 187 188 188 190 184 185 193 191 192 198 198 190 187 199 207 207 220 232 248 254 241 240 253 252 241 208 223 257 265 257
135 157 155 127 132 13 287 290 302 317 343 30 143 150 173 179 179 183 180 181 186 184 188 188 184 187 188 187 185 184 186 189 197 199 199 214 228 238 240 245 247 254 239 226 190 190 257 277 281
126 141 104 113 140 229 288 281 263 283 285 284 190 183 189 175 171 174 177 185 189 184 178 177 179 185 184 181 189 191 191 193 192 184 202 212 223 221 215 247 251 264 280 119 139 185 268 94 331
106 98 105 113 145 156 223 266 234 228 230 218 218 202 192 183 181 177 176 181 178 168 165 168 176 176 177 181 182 184 187 185 179 192 209 209 204 198 201 220 234 227 233 220 152 205 140 139 333
142 151 146 146 192 163 169 264 279 227 224 210 212 197 188 184 182 168 162 158 159 159 166 173 176 178 184 179 174 184 187 185 193 208 213 201 202 206 206 201 214 231 242 238 202 228 214 215 244